SCP
0 0 0 0 1 1 0 0 0 0 0 0 0 -0 -0 0 0 0 0 0 0 0 0 0 0 0 0 0 0 0 0 0 0 0 0 0 0 0 0 0 0 0 0
1 0 0 0 1 1 0 0 0 0 0 0 0 -0 -0 0 0 0 0 0 1 0 0 0 0 0 0 0 0 0 0 0 0 0 0 0 0 0 0 0 0 0 0
0 0 0 0 0 1 0 0 0 0 0 0 0 0 -0 0 0 0 0 1 1 1 1 1 1 0 0 0 0 0 0 0 0 0 0 0 0 0 0 0 0 0 0
1 0 0 0 1 1 1 1 0 0 0 0 0 0 0 0 0 0 0 0 1 0 1 1 1 1 1 0 0 0 0 0 0 0 0 0 0 0 0 0 0 0 0
1 0 0 1 0 1 1 1 0 0 0 0 0 0 0 0 0 1 0 0 0 0 0 1 1 1 1 0 0 0 0 0 0 0 0 0 0 0 0 0 0 0 0
1 1 1 1 1 1 1 1 1 0 0 0 0 0 0 0 0 1 1 1 0 0 0 1 1 0 0 0 0 0 0 0 0 0 0 0 0 0 0 0 0 0 0
1 1 1 1 1 1 0 1 1 0 0 0 0 0 1 0 1 1 2 1 1 0 0 0 0 0 0 0 0 0 0 0 0 0 0 0 0 0 0 0 0 0 0
1 1 1 1 2 1 1 0 0 0 0 0 0 0 1 2 1 1 1 1 1 0 0 0 0 0 0 0 0 0 0 0 0 0 0 0 0 0 0 0 0 0 0
1 1 2 2 2 2 1 1 1 1 0 0 0 0 1 2 2 2 1 1 0 0 0 0 0 0 0 0 0 0 0 0 0 0 0 0 0 0 0 0 0 0 0
1 2 2 2 1 1 1 1 0 0 0 0 0 0 1 0 2 2 0 0 0 0 0 0 0 0 0 0 0 0 0 0 0 0 0 0 0 0 0 0 0 0 0
0 0 0 0 1 1 0 0 0 0 0 0 0 0 0 1 0 0 1 0 0 0 0 0 0 0 0 0 0 0 0 0 0 0 0 0 0 0 0 0 0 0 0
0 1 0 0 0 1 0 0 0 0 1 1 0 0 0 0 1 0 0 0 0 0 0 0 0 0 0 0 0 0 0 0 0 0 0 0 0 0 0 0 0 0 0
0 0 0 0 1 1 3 2 2 1 1 0 1 0 0 0 0 0 0 0 0 0 0 0 0 0 0 0 0 0 0 0 0 0 0 0 0 0 0 0 0 0 0
-0 0 0 0 0 0 1 1 2 2 1 1 1 1 0 0 0 0 0 0 0 0 0 0 0 0 0 0 0 0 0 0 0 0 0 0 0 0 0 0 0 0 0
-0 -0 0 0 0 0 1 1 1 1 1 1 1 1 1 0 0 0 0 0 0 0 0 0 0 0 0 0 0 0 0 0 0 0 0 0 0 0 0 0 0 0 0
0 0 0 0 0 0 1 1 1 1 1 1 1 1 1 0 0 0 0 0 0 0 0 0 0 0 0 0 0 0 0 0 0 0 0 0 0 0 0 0 0 0 0
0 0 0 0 1 0 1 0 0 0 0 0 0 0 0 0 0 0 0 0 0 0 0 0 0 0 0 0 0 0 0 0 0 0 0 0 0 0 0 0 0 0 0
0 0 0 0 0 0 0 0 0 0 0 0 0 0 0 0 0 0 0 0 0 0 0 0 0 0 0 0 0 0 0 0 0 0 0 0 0 0 0 0 0 0 0
0 0 0 0 0 0 0 0 0 0 0 0 0 0 0 0 0 0 0 0 0 0 0 0 0 0 0 0 0 0 0 0 0 0 0 0 0 0 0 0 0 0 0
0 0 -0 -0 0 0 0 0 0 0 0 0 0 0 0 0 0 0 0 0 0 0 0 0 0 0 0 0 0 0 0 0 0 0 0 0 0 0 0 0 0 0 0
0 -0 -0 0 0 0 0 0 0 0 0 0 0 0 0 0 0 0 0 0 0 0 0 0 0 0 0 0 0 0 0 0 0 0 0 0 0 0 0 0 0 0 0
0 -0 -0 0 0 0 0 0 0 0 0 0 0 0 0 0 0 0 0 0 0 0 0 0 0 0 0 0 0 0 0 0 0 0 0 0 0 0 0 0 0 0 0
-0 -0 0 0 0 0 0 0 0 0 0 0 0 0 0 0 0 0 0 0 0 0 0 0 0 0 0 0 0 0 0 -0 -0 0 0 0 0 0 0 0 0 0 0
-0 0 0 0 0 0 0 0 0 0 0 0 0 0 0 0 0 0 -0 -0 0 0 0 0 0 0 0 0 0 0 -0 -0 -0 0 0 0 0 0 0 0 0 0 0
-0 0 0 0 0 0 0 0 0 0 0 0 0 0 0 0 -0 0 -0 -0 0 0 0 -0 -0 0 0 0 0 0 0 0 0 0 0 0 0 0 0 0 0 0 0
-0 0 0 0 0 0 0 0 0 0 0 0 0 0 0 0 0 -0 0 0 0 -0 -0 -0 0 0 0 0 -0 -0 -0 0 0 0 0 0 0 0 0 0 0 0 0
Wind_Speed_500mb
55 55 55 54 54 54 55 53 51 49 46 44 43 43 39 39 38 35 34 29 37 30 20 15 13 15 12 13 15 19 23 26 28 30 33 34 40 40 44 51 52 48 45
55 57 58 59 55 51 49 47 48 55 52 50 48 49 49 44 38 38 38 39 43 34 23 20 21 21 18 18 18 19 23 26 27 30 34 35 41 46 53 52 51 52 59
45 50 55 60 60 51 47 46 42 47 54 49 48 52 53 49 37 32 43 51 47 37 29 27 29 27 25 23 21 19 21 25 29 32 37 42 46 53 52 59 62 63 59
53 52 54 51 57 56 50 51 49 45 45 48 46 45 56 52 44 37 44 48 44 37 33 31 36 31 31 26 25 24 25 30 33 34 37 41 48 51 54 55 56 55 50
63 69 63 71 66 57 59 59 58 58 51 51 51 44 47 52 51 43 46 46 42 40 38 40 40 37 35 31 31 30 28 32 35 34 40 42 46 49 51 49 52 47 46
62 60 75 72 76 72 70 68 69 67 65 58 55 54 43 51 53 53 53 55 51 48 46 47 44 44 43 34 32 32 31 32 34 37 39 43 46 48 47 46 45 44 41
56 63 73 72 91 86 84 85 84 73 74 66 63 64 56 62 56 60 63 64 61 56 53 50 47 47 42 33 31 32 34 33 34 41 42 43 47 47 46 46 45 40 30
64 58 67 69 77 87 86 96 90 90 74 75 73 59 59 68 60 62 63 66 64 58 57 55 50 45 38 30 32 35 32 31 34 40 43 46 46 45 46 44 43 36 32
50 51 55 73 79 86 103 104 80 84 64 78 77 68 32 37 54 62 63 65 65 59 58 54 51 43 35 32 31 31 28 31 35 38 46 49 46 45 44 42 40 33 35
55 46 52 56 75 82 90 98 87 76 52 62 82 86 81 46 44 39 61 58 57 58 57 60 51 41 38 34 28 27 27 31 34 40 44 47 43 35 40 43 40 33 33
54 54 45 55 47 82 66 65 87 92 80 84 90 85 87 79 58 50 51 59 54 56 58 53 45 43 36 30 25 23 24 29 34 41 45 40 30 32 42 45 38 33 29
48 40 44 43 49 55 60 71 82 87 83 89 97 79 69 80 80 64 39 64 65 57 49 45 44 43 39 31 26 20 26 32 38 40 39 25 25 32 40 45 40 41 34
54 41 42 48 47 62 72 73 72 80 81 85 80 80 75 85 87 84 61 50 60 55 46 51 43 43 38 31 29 25 28 36 37 38 25 20 25 31 40 43 42 45 39
49 44 47 51 52 51 58 53 59 65 66 69 81 70 60 86 90 70 64 70 56 54 50 49 57 50 42 33 30 30 29 26 28 17 18 22 24 30 39 45 44 44 42
59 47 47 51 50 48 52 49 52 57 57 62 71 68 80 83 83 98 74 64 78 55 60 55 45 56 44 35 26 30 24 23 24 17 19 19 21 31 39 47 41 40 42
56 53 47 50 54 55 49 46 48 52 52 53 56 62 72 68 62 82 101 74 60 56 59 65 65 47 37 31 32 25 26 27 21 21 20 18 25 31 39 42 42 44 45
52 54 52 50 50 53 46 44 44 42 40 43 54 55 56 66 67 71 82 74 81 78 72 60 56 40 39 36 23 22 24 24 19 19 13 21 25 33 40 40 41 42 44
51 55 54 55 46 47 47 40 38 39 38 39 46 47 49 58 70 73 75 73 71 82 78 66 52 50 39 25 20 15 19 17 6 11 18 22 29 37 39 39 36 40 48
46 52 53 50 44 38 46 40 36 33 29 25 29 36 37 54 48 68 64 58 49 56 54 59 53 40 28 18 11 7 10 7 4 11 18 26 34 39 41 32 36 43 54
33 44 50 44 34 36 42 35 23 19 14 11 7 16 25 36 45 55 46 32 25 33 37 38 38 30 19 13 9 10 9 10 7 8 22 31 37 36 25 26 34 46 56
36 41 49 36 31 36 33 26 18 11 13 5 11 11 11 17 26 34 37 28 37 40 38 21 28 13 13 12 10 10 6 8 2 12 30 31 36 27 20 21 37 48 51
35 37 40 33 31 28 26 23 18 19 15 10 14 10 14 13 17 28 30 43 51 49 39 24 17 18 20 16 14 10 15 16 22 26 34 22 27 29 19 28 41 43 41
29 31 35 33 24 27 23 30 29 27 17 21 17 18 29 37 50 59 61 56 51 32 17 21 22 21 22 24 16 18 24 27 25 32 29 32 30 20 15 26 30 34 38
24 29 29 29 24 22 25 29 26 25 27 28 30 33 38 48 53 53 58 43 36 36 32 29 24 30 32 32 25 27 30 25 21 32 42 50 46 22 18 25 26 32 34
21 28 25 23 25 26 25 30 18 20 39 46 51 57 58 51 54 51 45 51 49 45 41 39 40 38 33 32 31 25 39 30 21 33 41 43 53 26 19 27 24 32 31
19 14 16 28 26 28 30 20 22 33 51 62 63 63 61 62 49 42 40 42 44 37 35 40 36 30 28 28 30 35 42 42 35 21 41 44 52 38 20 31 25 32 34
Wind_Direction_500mb
251 248 245 244 245 244 244 245 247 244 239 235 229 216 203 198 202 213 226 242 211 223 227 249 259 261 277 284 286 291 295 298 303 308 309 312 311 308 301 301 301 306 305
257 256 253 249 247 246 248 251 256 253 249 242 234 226 210 207 217 231 237 234 215 217 224 244 255 264 272 283 287 288 293 298 303 309 302 299 297 294 298 300 299 302 304
263 262 262 257 253 249 250 251 260 255 243 244 237 231 221 219 232 240 232 216 213 213 217 238 257 264 269 273 279 279 287 297 295 291 289 290 288 294 293 299 302 303 303
260 258 256 264 259 250 252 251 250 252 242 232 231 229 224 228 236 233 219 212 217 222 226 239 254 260 267 267 270 270 300 293 294 297 296 297 297 297 298 300 302 302 307
255 258 253 252 251 253 247 247 251 245 237 234 233 232 233 232 237 234 220 223 232 229 237 243 248 257 257 254 263 277 281 288 296 299 300 301 301 303 303 305 304 308 309
278 272 251 248 245 248 247 246 243 245 240 235 235 235 238 230 239 240 240 237 232 239 237 242 252 251 249 251 270 278 285 295 297 300 301 304 305 306 309 307 314 314 308
276 273 276 261 248 242 243 249 241 239 243 234 234 231 238 240 242 243 241 236 233 236 237 245 243 246 244 261 274 282 295 299 301 303 311 307 309 314 310 319 314 309 312
280 279 275 280 264 251 247 242 251 238 239 234 221 220 237 239 239 234 233 232 234 235 236 245 239 240 246 263 274 285 290 292 302 309 310 312 312 309 318 317 314 310 312
290 281 278 270 265 263 255 255 249 221 236 233 230 229 232 232 236 227 225 230 232 233 233 238 242 238 250 259 271 276 282 294 305 312 308 311 323 322 321 323 323 313 312
297 300 277 269 274 259 256 259 257 244 249 237 242 239 238 241 229 226 222 225 226 224 236 236 237 239 241 250 260 267 278 294 305 308 307 317 318 330 337 340 338 327 329
295 299 277 260 277 267 270 276 274 262 257 238 247 244 237 234 241 235 220 214 215 219 226 234 231 238 240 244 253 261 279 297 303 306 310 311 322 337 345 348 347 344 337
310 301 299 273 263 267 270 282 267 272 254 241 242 241 233 236 233 240 230 208 205 208 213 216 225 224 234 238 249 276 297 303 305 304 307 319 336 341 344 347 351 347 342
315 307 289 279 280 264 267 265 262 263 258 251 244 259 255 245 241 239 246 208 193 196 196 211 213 226 226 238 249 289 296 300 302 303 310 331 332 337 340 345 346 348 343
313 310 288 282 273 264 262 263 264 265 271 266 255 257 258 244 234 241 252 233 198 193 200 205 203 213 226 238 256 279 290 295 301 313 321 325 325 332 337 341 344 345 342
296 310 295 284 279 269 273 275 276 275 275 267 260 257 255 256 242 229 236 248 213 191 207 211 207 215 224 236 256 277 289 297 298 299 307 313 322 329 335 334 336 334 332
290 291 298 289 281 278 277 284 283 282 277 273 267 259 260 260 260 222 241 238 246 255 232 222 215 212 215 228 247 273 287 293 305 300 297 310 322 326 330 328 330 331 324
293 296 293 293 283 279 279 275 275 281 281 267 261 262 259 258 255 236 233 237 231 237 230 212 210 200 204 223 250 263 286 296 305 306 300 324 324 323 326 328 328 325 323
281 293 296 293 291 272 275 274 273 275 278 275 274 272 278 263 231 229 238 241 237 219 214 200 189 194 204 218 232 271 289 290 300 260 293 317 322 324 323 326 327 326 332
274 288 294 291 285 272 265 275 278 287 293 295 287 281 259 258 246 230 232 204 191 204 207 183 174 192 183 197 237 263 260 203 246 281 312 324 324 323 323 329 332 331 329
285 283 296 287 280 274 262 268 274 266 266 261 276 272 268 261 236 214 197 177 145 136 131 152 163 180 167 181 173 160 185 157 180 316 337 336 326 331 321 330 328 327 324
270 283 300 291 278 266 259 259 245 212 173 159 126 159 196 222 226 217 201 164 143 116 118 164 155 170 167 142 125 129 91 94 3 341 348 348 348 342 335 334 329 332 336
274 286 295 289 274 254 255 233 188 176 166 176 172 156 122 114 155 149 126 116 113 99 113 175 163 171 132 108 107 86 82 54 42 358 357 6 0 352 352 346 339 335 337
280 285 289 292 263 241 228 178 174 166 155 128 121 124 136 136 127 126 117 106 96 99 128 160 137 105 98 98 98 66 54 31 37 14 27 15 4 357 353 348 348 355 353
273 275 282 282 247 219 184 168 162 152 134 117 114 118 122 117 111 108 103 111 126 132 126 120 106 94 90 88 78 60 37 32 54 35 26 21 13 22 34 2 354 7 2
257 266 273 238 207 177 172 150 163 161 132 121 114 112 109 96 91 100 119 122 117 110 99 90 87 90 85 79 71 40 30 46 55 34 25 22 12 21 36 17 19 22 16
246 256 211 169 166 164 170 178 162 154 129 122 118 111 99 99 113 116 116 115 110 101 92 90 99 92 81 85 69 36 31 42 52 49 31 25 20 20 8 22 18 23 27
Wind_Speed_850mb
55 55 55 54 54 54 55 53 51 49 46 44 43 43 39 39 38 35 34 29 37 30 20 15 13 15 12 13 15 19 23 26 28 30 33 34 40 40 44 51 52 48 45
55 57 58 59 55 51 49 47 48 55 52 50 48 49 49 44 38 38 38 39 43 34 23 20 21 21 18 18 18 19 23 26 27 30 34 35 41 46 53 52 51 52 59
45 50 55 60 60 51 47 46 42 47 54 49 48 52 53 49 37 32 43 51 47 37 29 27 29 27 25 23 21 19 21 25 29 32 37 42 46 53 52 59 62 63 59
53 52 54 51 57 56 50 51 49 45 45 48 46 45 56 52 44 37 44 48 44 37 33 31 36 31 31 26 25 24 25 30 33 34 37 41 48 51 54 55 56 55 50
63 69 63 71 66 57 59 59 58 58 51 51 51 44 47 52 51 43 46 46 42 40 38 40 40 37 35 31 31 30 28 32 35 34 40 42 46 49 51 49 52 47 46
62 60 75 72 76 72 70 68 69 67 65 58 55 54 43 51 53 53 53 55 51 48 46 47 44 44 43 34 32 32 31 32 34 37 39 43 46 48 47 46 45 44 41
56 63 73 72 91 86 84 85 84 73 74 66 63 64 56 62 56 60 63 64 61 56 53 50 47 47 42 33 31 32 34 33 34 41 42 43 47 47 46 46 45 40 30
64 58 67 69 77 87 86 96 90 90 74 75 73 59 59 68 60 62 63 66 64 58 57 55 50 45 38 30 32 35 32 31 34 40 43 46 46 45 46 44 43 36 32
50 51 55 73 79 86 103 104 80 84 64 78 77 68 32 37 54 62 63 65 65 59 58 54 51 43 35 32 31 31 28 31 35 38 46 49 46 45 44 42 40 33 35
55 46 52 56 75 82 90 98 87 76 52 62 82 86 81 46 44 39 61 58 57 58 57 60 51 41 38 34 28 27 27 31 34 40 44 47 43 35 40 43 40 33 33
54 54 45 55 47 82 66 65 87 92 80 84 90 85 87 79 58 50 51 59 54 56 58 53 45 43 36 30 25 23 24 29 34 41 45 40 30 32 42 45 38 33 29
48 40 44 43 49 55 60 71 82 87 83 89 97 79 69 80 80 64 39 64 65 57 49 45 44 43 39 31 26 20 26 32 38 40 39 25 25 32 40 45 40 41 34
54 41 42 48 47 62 72 73 72 80 81 85 80 80 75 85 87 84 61 50 60 55 46 51 43 43 38 31 29 25 28 36 37 38 25 20 25 31 40 43 42 45 39
49 44 47 51 52 51 58 53 59 65 66 69 81 70 60 86 90 70 64 70 56 54 50 49 57 50 42 33 30 30 29 26 28 17 18 22 24 30 39 45 44 44 42
59 47 47 51 50 48 52 49 52 57 57 62 71 68 80 83 83 98 74 64 78 55 60 55 45 56 44 35 26 30 24 23 24 17 19 19 21 31 39 47 41 40 42
56 53 47 50 54 55 49 46 48 52 52 53 56 62 72 68 62 82 101 74 60 56 59 65 65 47 37 31 32 25 26 27 21 21 20 18 25 31 39 42 42 44 45
52 54 52 50 50 53 46 44 44 42 40 43 54 55 56 66 67 71 82 74 81 78 72 60 56 40 39 36 23 22 24 24 19 19 13 21 25 33 40 40 41 42 44
51 55 54 55 46 47 47 40 38 39 38 39 46 47 49 58 70 73 75 73 71 82 78 66 52 50 39 25 20 15 19 17 6 11 18 22 29 37 39 39 36 40 48
46 52 53 50 44 38 46 40 36 33 29 25 29 36 37 54 48 68 64 58 49 56 54 59 53 40 28 18 11 7 10 7 4 11 18 26 34 39 41 32 36 43 54
33 44 50 44 34 36 42 35 23 19 14 11 7 16 25 36 45 55 46 32 25 33 37 38 38 30 19 13 9 10 9 10 7 8 22 31 37 36 25 26 34 46 56
36 41 49 36 31 36 33 26 18 11 13 5 11 11 11 17 26 34 37 28 37 40 38 21 28 13 13 12 10 10 6 8 2 12 30 31 36 27 20 21 37 48 51
35 37 40 33 31 28 26 23 18 19 15 10 14 10 14 13 17 28 30 43 51 49 39 24 17 18 20 16 14 10 15 16 22 26 34 22 27 29 19 28 41 43 41
29 31 35 33 24 27 23 30 29 27 17 21 17 18 29 37 50 59 61 56 51 32 17 21 22 21 22 24 16 18 24 27 25 32 29 32 30 20 15 26 30 34 38
24 29 29 29 24 22 25 29 26 25 27 28 30 33 38 48 53 53 58 43 36 36 32 29 24 30 32 32 25 27 30 25 21 32 42 50 46 22 18 25 26 32 34
21 28 25 23 25 26 25 30 18 20 39 46 51 57 58 51 54 51 45 51 49 45 41 39 40 38 33 32 31 25 39 30 21 33 41 43 53 26 19 27 24 32 31
19 14 16 28 26 28 30 20 22 33 51 62 63 63 61 62 49 42 40 42 44 37 35 40 36 30 28 28 30 35 42 42 35 21 41 44 52 38 20 31 25 32 34
Wind_Direction_850mb
251 248 245 244 245 244 244 245 247 244 239 235 229 216 203 198 202 213 226 242 211 223 227 249 259 261 277 284 286 291 295 298 303 308 309 312 311 308 301 301 301 306 305
257 256 253 249 247 246 248 251 256 253 249 242 234 226 210 207 217 231 237 234 215 217 224 244 255 264 272 283 287 288 293 298 303 309 302 299 297 294 298 300 299 302 304
263 262 262 257 253 249 250 251 260 255 243 244 237 231 221 219 232 240 232 216 213 213 217 238 257 264 269 273 279 279 287 297 295 291 289 290 288 294 293 299 302 303 303
260 258 256 264 259 250 252 251 250 252 242 232 231 229 224 228 236 233 219 212 217 222 226 239 254 260 267 267 270 270 300 293 294 297 296 297 297 297 298 300 302 302 307
255 258 253 252 251 253 247 247 251 245 237 234 233 232 233 232 237 234 220 223 232 229 237 243 248 257 257 254 263 277 281 288 296 299 300 301 301 303 303 305 304 308 309
278 272 251 248 245 248 247 246 243 245 240 235 235 235 238 230 239 240 240 237 232 239 237 242 252 251 249 251 270 278 285 295 297 300 301 304 305 306 309 307 314 314 308
276 273 276 261 248 242 243 249 241 239 243 234 234 231 238 240 242 243 241 236 233 236 237 245 243 246 244 261 274 282 295 299 301 303 311 307 309 314 310 319 314 309 312
280 279 275 280 264 251 247 242 251 238 239 234 221 220 237 239 239 234 233 232 234 235 236 245 239 240 246 263 274 285 290 292 302 309 310 312 312 309 318 317 314 310 312
290 281 278 270 265 263 255 255 249 221 236 233 230 229 232 232 236 227 225 230 232 233 233 238 242 238 250 259 271 276 282 294 305 312 308 311 323 322 321 323 323 313 312
297 300 277 269 274 259 256 259 257 244 249 237 242 239 238 241 229 226 222 225 226 224 236 236 237 239 241 250 260 267 278 294 305 308 307 317 318 330 337 340 338 327 329
295 299 277 260 277 267 270 276 274 262 257 238 247 244 237 234 241 235 220 214 215 219 226 234 231 238 240 244 253 261 279 297 303 306 310 311 322 337 345 348 347 344 337
310 301 299 273 263 267 270 282 267 272 254 241 242 241 233 236 233 240 230 208 205 208 213 216 225 224 234 238 249 276 297 303 305 304 307 319 336 341 344 347 351 347 342
315 307 289 279 280 264 267 265 262 263 258 251 244 259 255 245 241 239 246 208 193 196 196 211 213 226 226 238 249 289 296 300 302 303 310 331 332 337 340 345 346 348 343
313 310 288 282 273 264 262 263 264 265 271 266 255 257 258 244 234 241 252 233 198 193 200 205 203 213 226 238 256 279 290 295 301 313 321 325 325 332 337 341 344 345 342
296 310 295 284 279 269 273 275 276 275 275 267 260 257 255 256 242 229 236 248 213 191 207 211 207 215 224 236 256 277 289 297 298 299 307 313 322 329 335 334 336 334 332
290 291 298 289 281 278 277 284 283 282 277 273 267 259 260 260 260 222 241 238 246 255 232 222 215 212 215 228 247 273 287 293 305 300 297 310 322 326 330 328 330 331 324
293 296 293 293 283 279 279 275 275 281 281 267 261 262 259 258 255 236 233 237 231 237 230 212 210 200 204 223 250 263 286 296 305 306 300 324 324 323 326 328 328 325 323
281 293 296 293 291 272 275 274 273 275 278 275 274 272 278 263 231 229 238 241 237 219 214 200 189 194 204 218 232 271 289 290 300 260 293 317 322 324 323 326 327 326 332
274 288 294 291 285 272 265 275 278 287 293 295 287 281 259 258 246 230 232 204 191 204 207 183 174 192 183 197 237 263 260 203 246 281 312 324 324 323 323 329 332 331 329
285 283 296 287 280 274 262 268 274 266 266 261 276 272 268 261 236 214 197 177 145 136 131 152 163 180 167 181 173 160 185 157 180 316 337 336 326 331 321 330 328 327 324
270 283 300 291 278 266 259 259 245 212 173 159 126 159 196 222 226 217 201 164 143 116 118 164 155 170 167 142 125 129 91 94 3 341 348 348 348 342 335 334 329 332 336
274 286 295 289 274 254 255 233 188 176 166 176 172 156 122 114 155 149 126 116 113 99 113 175 163 171 132 108 107 86 82 54 42 358 357 6 0 352 352 346 339 335 337
280 285 289 292 263 241 228 178 174 166 155 128 121 124 136 136 127 126 117 106 96 99 128 160 137 105 98 98 98 66 54 31 37 14 27 15 4 357 353 348 348 355 353
273 275 282 282 247 219 184 168 162 152 134 117 114 118 122 117 111 108 103 111 126 132 126 120 106 94 90 88 78 60 37 32 54 35 26 21 13 22 34 2 354 7 2
257 266 273 238 207 177 172 150 163 161 132 121 114 112 109 96 91 100 119 122 117 110 99 90 87 90 85 79 71 40 30 46 55 34 25 22 12 21 36 17 19 22 16
246 256 211 169 166 164 170 178 162 154 129 122 118 111 99 99 113 116 116 115 110 101 92 90 99 92 81 85 69 36 31 42 52 49 31 25 20 20 8 22 18 23 27